Location: Nelson
(41.2830°S, 173.2830°E)
Time: 21:20:04
(UTC+13:00)

ADEOS Rocket - Pass Details

Date: 24 January 2019
Orbit: 859 x 1306 km, 98.7° (Epoch: 17 October)

Event Time Altitude Azimuth Distance (km) Brightness Sun altitude
Exits shadow 23:07:08 16° 342° (NNW) 2,182 4.5 -20.0°
Maximum altitude 23:11:18 40° 278° (W) 1,270 3.8 -20.5°
Drops below altitude 10° 23:16:30 10° 209° (SSW) 2,530 6.3 -21.1°
Sets 23:19:03 0° 201° (SSW) 3,484 7.3 -21.4°
